OBJECT YP, 69799

Orbit data source: Space-Track

You're viewing an uncataloged RSO

Recently launched and/or uncataloged RSOs may have evolving metadata. Metadata may include the following, but is not limited to: Owner, Manufacturer, Bus, Motor, and Mission.

OBJECT YP, 69799 is a satellite in LEO that was delivered to and deployed from the ISS. Unknown objects in Earth's orbit typically refer to objects detected orbiting the Earth but have not yet been identified or cataloged. These objects could be anything from previously untracked satellites, spent rocket stages, debris from satellite collisions, or even natural meteoroids temporarily captured by Earth's gravity.

Loading next visibility...
Identifier
69799, 1998-067YP
Orbit
LEO
Country
Flag of TBDTBD
Related business
Manufacturer
Arizona SU
Mission
Operational spacecraft
Bus & Motor
CUBESAT 1U, Unknown motor
Mass
1 kg wet, 1 kg dry
Launch date (UTC)
1998-11-20 (28 years ago)
Launch vehicle
FALCON 9
Launch site
Tyuratam Missile And Space Complex (TTMTR)
Object type
Unknown
Shape & HBR
BOX, 1.1 m
Radar Cross Section
Medium (>0.1 m² and <1 m²)

Expand to show TLE details & history
Last TLE update: 10 hours ago

TLE from 10 hours ago
0 OBJECT YP
1 69799U 98067YP  26253.96686083  .00043312  00000-0  62918-3 0  9996
2 69799  51.6286 233.8745 0010413 128.9835 231.2085 15.55295988 10961
Epoch: 2026-09-10T23:12Z
TLE epoch observation values (Epoch: 2026-09-10T23:12:16.775Z)
Latitude
-0.00004°
Longitude
-104.19241°
Altitude
406.461 km
Speed
7.666 km/s
True Right ascension
15h 35m 29s
True Declination
0° 00' 00"
Sunlit
Object was in daylight at epoch
Visualization orbit readout
Latitude
Unknown
Longitude
Unknown
Altitude
Unknown
Speed
Unknown
Apparent Right ascension
Unknown
Apparent Declination
Unknown
Sunlit
N/A
Visualization observer readout
Local Sidereal Time
01:48:09
Azimuth
Unknown
Elevation
Unknown
Doppler factor
Unknown
Orbital elements
Apogee altitude
408.863 km
Perigee altitude
394.743 km
Semi-major axis
6,779.94 km
Eccentricity
0.00104
Inclination
51.6286°
RAAN
233.8745°
Arg. of periapsis
128.9835°
True anomaly
231.11557°
Mean anomaly
231.2085°
Eccentric anomaly
231.16203°
Mean motion
3.8878 °/min
Orbital period
92.6 mins
BSTAR
0.00062918
Loading maneuver chart data...
Computing Atmospheric mass density...

Documentation

Showing up to 5 results
|